Waarnemingen

Advertentie
Mijn weer
Lulea/Kallax, Zweden (2186): temperatuur & dauwpunt: 21.01.2020 21:00:00 - 27.01.2020 21:00:00 (CET)Lulea/Kallax, Zweden (2186): windsnelheid & windstoten: 21.01.2020 21:00:00 - 27.01.2020 21:00:00 (CET)Lulea/Kallax, Zweden (2186): windrichting: 21.01.2020 21:00:00 - 27.01.2020 21:00:00 (CET)Lulea/Kallax, Zweden (2186): luchtdruk: 21.01.2020 21:00:00 - 27.01.2020 21:00:00 (CET)Lulea/Kallax, Zweden (2186): zicht: 21.01.2020 21:00:00 - 27.01.2020 21:00:00 (CET)Lulea/Kallax, Zweden (2186): neerslag: 21.01.2020 21:00:00 - 27.01.2020 21:00:00 (CET)
Datum & Tijd tt [°C] td [°C] ff [km/u] ff [kn] fx [km/u] fx [kn] dd ppp [hPa] vv [km] rr [mm]
27.01.2020 21:00:00 -8,0 -9,1 15 8 25 14 O 1007,3 1,9 0,4
27.01.2020 20:00:00 -8,3 -9,4 16 9 29 16 O 1008,0 1,7 0,2
27.01.2020 19:00:00 -8,2 -9,3 15 8 29 16 O 1008,6 2,1 0,3
27.01.2020 18:00:00 -10,0 -11,2 15 8 25 14 NO 1009,0 3,0 0,5
27.01.2020 17:00:00 -9,6 -10,9 16 9 29 16 ONO 1009,7 9 0,2
27.01.2020 16:00:00 -10,1 -11,4 16 9 29 16 ONO 1010,1 3,0 0,4
27.01.2020 15:00:00 -10,5 -11,8 15 8 29 16 ONO 1010,8 3,0 0,5
27.01.2020 14:00:00 -11,6 -13,0 15 8 32 18 ONO 1011,3 7 0,6
27.01.2020 13:00:00 -12,0 -13,6 16 9 29 16 ONO 1011,8 2,5 0,6
27.01.2020 12:00:00 -11,9 -13,3 16 9 25 14 ONO 1012,2 2,5 0,4
27.01.2020 11:00:00 -12,6 -14,2 13 7 22 12 NO 1013,2 3,5 0,2
27.01.2020 10:00:00 -13,0 -14,7 9 5 18 10 NNO 1013,7 10 0,0
27.01.2020 09:00:00 -13,4 -15,1 11 6 18 10 NO 1013,9 10 0,0
27.01.2020 08:00:00 -13,5 -15,3 8 4 14 8 NNO 1014,0 10 0,0
27.01.2020 07:00:00 -13,3 -15,1 8 4 14 8 NNO 1014,2 10 0,0
27.01.2020 06:00:00 -13,5 -15,3 8 4 14 8 NNO 1014,3 10 0,0
27.01.2020 05:00:00 -13,7 -15,7 5 3 14 8 N 1014,6 7 0,1
27.01.2020 04:00:00 -13,7 -15,7 5 3 11 6 N 1014,7 10 0,0
27.01.2020 03:00:00 -13,9 -16,0 8 4 11 6 NNO 1014,8 10 0,0
27.01.2020 02:00:00 -15,3 -17,0 5 3 7 4 N 1015,1 10 0,0
27.01.2020 01:00:00 -13,7 -16,0 4 2 7 4 - 1015,0 10 0,0
27.01.2020 00:00:00 -13,5 -15,8 5 3 11 6 NNO 1014,8 10 0,0
26.01.2020 23:00:00 -13,3 -15,7 5 3 11 6 N 1014,8 10 0,0
26.01.2020 22:00:00 -13,1 -15,7 5 3 14 8 NNO 1014,5 10 0,0
26.01.2020 21:00:00 -12,9 -15,3 9 5 14 8 NNO 1014,2 10 0,0
26.01.2020 20:00:00 -13,0 -15,1 5 3 11 6 N 1014,0 10 0,0
26.01.2020 19:00:00 -13,5 -15,8 5 3 14 8 N 1013,4 10 0,0
26.01.2020 18:00:00 -12,9 -15,2 8 4 14 8 N 1012,6 10 0,0
26.01.2020 17:00:00 -12,6 -14,9 4 2 14 8 N 1012,1 10 0,0
26.01.2020 16:00:00 -12,7 -14,7 9 5 14 8 NNW 1011,7 10 0,0
26.01.2020 15:00:00 -12,4 -14,8 9 5 14 8 N 1010,7 10 0,0
26.01.2020 14:00:00 -11,9 -14,5 9 5 18 10 N 1010,4 10 0,0
26.01.2020 13:00:00 -11,6 -14,4 11 6 25 14 N 1009,4 10 0,0
26.01.2020 12:00:00 -11,7 -14,5 11 6 18 10 N 1008,7 10 0,0
26.01.2020 11:00:00 -11,1 -14,2 11 6 18 10 N 1007,4 10 0,0
26.01.2020 10:00:00 -10,8 -13,4 8 4 18 10 N 1006,7 10 0,0
26.01.2020 09:00:00 -10,4 -12,4 9 5 18 10 N 1005,5 10 0,0
26.01.2020 08:00:00 -10,1 -12,1 11 6 18 10 N 1004,4 10 0,0
26.01.2020 07:00:00 -10,3 -12,2 11 6 22 12 N 1003,6 10 0,0
26.01.2020 06:00:00 -10,4 -12,1 9 5 18 10 N 1002,8 10 0,0
26.01.2020 05:00:00 -10,8 -12,5 8 4 14 8 N 1002,1 10 0,0
26.01.2020 04:00:00 -11,1 -13,0 8 4 18 10 NNO 1001,3 10 0,0
26.01.2020 03:00:00 -11,6 -13,3 11 6 22 12 NNO 1000,8 10 0,0
26.01.2020 02:00:00 -12,5 -14,1 11 6 18 10 NNO 1000,5 10 0,0
26.01.2020 01:00:00 -12,6 -14,0 8 4 14 8 N 1000,5 10 0,0
26.01.2020 00:00:00 -12,8 -14,2 5 3 11 6 N 1000,6 10 0,0
25.01.2020 23:00:00 -12,4 -13,7 9 5 14 8 N 999,9 10 0,0
25.01.2020 22:00:00 -12,1 -13,3 8 4 11 6 N 999,8 10 0,0
25.01.2020 21:00:00 -13,9 -15,3 4 2 7 4 N 999,7 10 0,0
25.01.2020 20:00:00 -13,2 -14,5 0 0 4 2 N 999,6 10 0,0
25.01.2020 19:00:00 -13,0 -14,3 4 2 4 2 NW 999,3 10 0,0
25.01.2020 18:00:00 -13,4 -14,8 4 2 4 2 NW 999,2 10 0,0
25.01.2020 17:00:00 -13,0 -14,2 0 0 4 2 N 998,8 10 0,0
25.01.2020 16:00:00 -12,1 -13,3 0 0 4 2 N 998,7 10 0,0
25.01.2020 15:00:00 -11,1 -11,9 0 0 4 2 N 998,3 10 0,0
25.01.2020 14:00:00 -9,9 -11,1 0 0 4 2 N 997,9 10 0,0
25.01.2020 13:00:00 -9,1 -10,6 0 0 7 4 N 997,2 10 0,0
25.01.2020 12:00:00 -8,5 -10,7 4 2 11 6 N 996,8 10 0,0
25.01.2020 11:00:00 -8,6 -11,0 8 4 14 8 WNW 996,1 10 0,0
25.01.2020 10:00:00 -8,5 -9,4 4 2 4 2 WNW 995,2 10 0,0
25.01.2020 09:00:00 -9,3 -10,4 2 1 7 4 W 994,3 10 0,0
25.01.2020 08:00:00 -7,9 -10,0 2 1 18 10 - 993,3 10 0,0
25.01.2020 07:00:00 -5,6 -8,2 15 8 25 14 NNW 992,3 10 0,0
25.01.2020 06:00:00 -8,3 -10,4 22 12 32 18 NNW 991,3 10 0,0
25.01.2020 05:00:00 -6,0 -8,9 21 11 29 16 NNW 990,4 10 0,0
25.01.2020 04:00:00 -6,3 -8,9 26 14 32 18 NNW 989,2 10 0,0
25.01.2020 03:00:00 -5,7 -8,3 21 11 25 14 NNW 988,3 10 0,0
25.01.2020 02:00:00 -4,1 -7,2 16 9 22 12 WNW 987,2 10 0,0
25.01.2020 01:00:00 -5,8 -8,2 8 4 11 6 WNW 986,7 10 0,0
25.01.2020 00:00:00 -6,1 -7,6 5 3 7 4 WZW 986,3 10 0,0
24.01.2020 23:00:00 -3,2 -5,1 5 3 11 6 W 985,9 10 0,0
24.01.2020 22:00:00 -5,4 -6,6 8 4 11 6 W 985,7 10 0,0
24.01.2020 21:00:00 -3,3 -5,0 5 3 11 6 ZW 985,3 10 0,0
24.01.2020 20:00:00 -2,5 -4,5 2 1 14 8 - 985,3 10 0,0
24.01.2020 19:00:00 -4,7 -6,4 2 1 14 8 - 985,7 10 0,0
24.01.2020 18:00:00 -1,8 -4,5 9 5 14 8 ZW 986,0 10 0,0
24.01.2020 17:00:00 -1,0 -4,7 8 4 22 12 WZW 986,7 10 0,0
24.01.2020 16:00:00 -0,8 -5,0 13 7 25 14 W 987,1 10 0,0
24.01.2020 15:00:00 -0,8 -5,0 21 11 32 18 W 987,8 10 0,0
24.01.2020 14:00:00 -0,6 -5,2 22 12 32 18 W 988,1 10 0,0
24.01.2020 13:00:00 -0,3 -5,3 18 10 32 18 W 988,5 10 0,0
24.01.2020 12:00:00 -0,9 -5,1 22 12 36 19 W 989,8 10 0,0
24.01.2020 11:00:00 -1,1 -5,0 22 12 36 19 WNW 990,1 10 0,0
24.01.2020 10:00:00 -1,4 -5,3 22 12 40 21 W 989,8 10 0,0
24.01.2020 09:00:00 -0,9 -5,1 26 14 40 21 W 989,7 10 0,0
24.01.2020 08:00:00 -0,9 -5,1 22 12 36 19 W 989,9 10 0,0
24.01.2020 07:00:00 -0,7 -4,9 24 13 36 19 W 989,7 10 0,0
24.01.2020 06:00:00 -0,5 -4,4 22 12 32 18 W 989,9 10 0,0
24.01.2020 05:00:00 -0,6 -4,7 11 6 36 19 WNW 990,0 10 0,0
24.01.2020 04:00:00 0,5 -4,3 26 14 36 19 W 990,3 10 0,0
24.01.2020 03:00:00 0,3 -3,4 22 12 40 21 W 990,0 10 0,0
24.01.2020 02:00:00 0,5 -3,1 22 12 40 21 W 990,1 10 0,0
24.01.2020 01:00:00 1,1 -2,3 29 16 54 29 W 990,7 10 0,0
24.01.2020 00:00:00 1,5 -1,1 26 14 40 21 W 990,1 10 0,0
23.01.2020 23:00:00 1,5 -0,1 21 11 40 21 W 990,1 10 0,0
23.01.2020 22:00:00 1,6 0,6 24 13 32 18 W 990,2 10 0,0
23.01.2020 21:00:00 1,1 0,7 15 8 25 14 W 990,4 10 0,0
23.01.2020 20:00:00 -0,7 -1,0 15 8 22 12 W 990,5 10 0,0
23.01.2020 19:00:00 -1,9 -2,2 13 7 18 10 WZW 990,8 10 0,0
23.01.2020 18:00:00 -5,6 -6,1 5 3 11 6 ZO 991,9 10 0,0
23.01.2020 17:00:00 -3,1 -3,5 8 4 14 8 ZO 992,6 10 0,0
23.01.2020 16:00:00 -3,4 -3,9 8 4 14 8 ZO 993,5 10 0,0
23.01.2020 15:00:00 -1,3 -1,7 9 5 22 12 ZZW 995,1 10 0,0
23.01.2020 14:00:00 -0,8 -1,1 16 9 32 18 ZZW 996,4 2,0 1,0
23.01.2020 13:00:00 -0,8 -1,1 21 11 32 18 Z 998,3 1,5 2,0
23.01.2020 12:00:00 -1,6 -2,0 21 11 32 18 Z 1000,4 1,0 1,0
23.01.2020 11:00:00 -1,8 -3,4 16 9 25 14 Z 1003,1 4,0 0,1
23.01.2020 10:00:00 -2,8 -4,5 8 4 14 8 ZZW 1005,0 10 0,0
23.01.2020 09:00:00 -5,5 -6,5 5 3 7 4 Z 1006,5 10 0,0
23.01.2020 08:00:00 -6,2 -8,2 8 4 11 6 ZO 1008,0 10 0,0
23.01.2020 07:00:00 -8,1 -9,4 9 5 14 8 ZZO 1009,0 10 0,0
23.01.2020 06:00:00 -7,7 -9,3 8 4 7 4 ZO 1010,3 10 0,0
23.01.2020 05:00:00 -6,7 -8,6 2 1 7 4 - 1011,4 10 0,0
23.01.2020 04:00:00 -5,4 -8,5 0 0 14 8 N 1012,5 10 0,0
23.01.2020 03:00:00 -3,0 -7,2 15 8 22 12 WNW 1013,3 10 0,0
23.01.2020 02:00:00 -3,0 -7,3 15 8 22 12 WNW 1014,1 10 0,0
23.01.2020 01:00:00 -3,5 -7,6 16 9 22 12 NW 1014,1 10 0,0
23.01.2020 00:00:00 -3,7 -8,2 15 8 18 10 WNW 1014,0 10 0,0
22.01.2020 23:00:00 -4,0 -8,7 11 6 18 10 WNW 1013,9 10 0,0
22.01.2020 22:00:00 -3,9 -8,9 18 10 32 18 NW 1013,9 10 0,0
22.01.2020 21:00:00 -3,7 -9,3 11 6 18 10 NW 1013,8 10 0,0
22.01.2020 20:00:00 -3,7 -9,3 11 6 22 12 WNW 1014,0 10 0,0
22.01.2020 19:00:00 -3,2 -9,2 15 8 22 12 NW 1014,1 10 0,0
22.01.2020 18:00:00 -3,5 -8,2 11 6 22 12 NW 1013,8 10 0,0
22.01.2020 17:00:00 -2,4 -7,5 16 9 22 12 NW 1013,5 10 0,0
22.01.2020 16:00:00 -2,3 -7,0 13 7 22 12 WNW 1012,9 10 0,0
22.01.2020 15:00:00 -1,9 -6,6 16 9 25 14 NW 1012,4 10 0,3
22.01.2020 14:00:00 -3,0 -6,5 21 11 25 14 NW 1011,7 10 0,0
22.01.2020 13:00:00 -1,0 -6,0 18 10 - - NW - 10 -
22.01.2020 12:00:00 -1,5 -6,7 16 9 22 12 NW 1010,6 10 0,0
22.01.2020 11:00:00 -2,7 -7,4 8 4 14 8 WNW 1008,3 10 0,0
22.01.2020 10:00:00 -2,4 -7,1 13 7 18 10 WNW 1007,3 10 0,0
22.01.2020 09:00:00 -3,5 -7,5 16 9 22 12 NW 1006,2 10 0,0
22.01.2020 08:00:00 -2,7 -6,7 16 9 29 16 NNW 1004,9 10 0,0
22.01.2020 07:00:00 -3,4 -7,2 24 13 40 21 NNW 1003,2 10 0,0
22.01.2020 06:00:00 -2,2 -6,7 22 12 36 19 NNW 1001,1 10 0,0
22.01.2020 05:00:00 -2,7 -6,3 28 15 36 19 NW 999,6 10 0,0
22.01.2020 04:00:00 -1,6 -5,8 26 14 36 19 NW 997,9 10 0,0
22.01.2020 03:00:00 -1,1 -5,9 22 12 36 19 NW 996,7 10 0,0
22.01.2020 02:00:00 -0,4 -5,8 31 17 40 21 NW 995,7 10 0,0
22.01.2020 01:00:00 0,1 -5,7 28 15 40 21 WNW 995,2 10 0,0
22.01.2020 00:00:00 0,4 -6,0 26 14 47 25 WNW 994,3 10 0,0
21.01.2020 23:00:00 0,6 -6,3 31 17 50 27 WNW 994,0 10 0,0
21.01.2020 22:00:00 0,1 -6,3 28 15 47 25 WNW 993,8 10 0,0
21.01.2020 21:00:00 0,1 -6,1 34 18 47 25 WNW 993,9 10 0,0

tt = temperatuur
td = dauwpunt
ff = windsnelheid
fx = windstoten
dd = windrichting
ppp = luchtdruk
vv = zicht
rr = neerslag

Weerstations in de omgeving